{"data":{"norad_id":42758,"intl_designator":"2017-034A","name":"HXMT (HUIYAN)","alt_names":[],"object_type":"PAYLOAD","status":"ACTIVE","operator":null,"country":"PRC","launch_date":"2017-06-15","launch_site_code":"JSC","launch_vehicle":null,"mission":null,"orbit_class":"UNKNOWN","rcs_meters":null,"size_class":null,"mass_kg":null,"dimensions":null,"purposes":["science"],"wikipedia_slug":null,"has_3d_model":false,"image_url":null,"decayed_at":null,"tle_current":{"epoch":"2026-09-20T03:54:22.798368Z","epoch_age_seconds":43654,"freshness":"FRESH","line1":"1 42758U 17034A   26263.16276387  .00003216  00000+0  15981-3 0  9998","line2":"2 42758  43.0153  13.9046 0030855  25.9870 334.2521 15.19167711512107","mean_motion":15.19167711,"eccentricity":0.0030855,"inclination_deg":43.0153,"raan_deg":13.9046,"arg_perigee_deg":25.987,"mean_anomaly_deg":334.2521,"bstar":0.00015981,"rev_number":51210,"period_min":94.788744493004,"perigee_km":487.10641140545,"apogee_km":529.60295157191,"semimajor_km":6886.4916814887,"source":"CELESTRAK","updated_at":"2026-09-20T09:00:47.150491Z"}}}